PIA736 OEJN-OPPS

Flight info

Callsign PIA736
Flight time 4h 20m
Altitude 37000
Route EGREP T532 KODIS Y214 KUTNA M440 TULBU G652 KUSRA DCT VUSET R462 BIVIN G325 HANGU
Aircraft B77L/H-SDE1E2E3FGHIJ2J3J4J5M1RWXY/LB1D1

Departure

Time 2026-04-20 08:46
Airport King Abdulaziz International Airport (OEJN)

Arrival

Time 2026-04-20 13:07
Airport Bacha Khan International Airport (OPPS)
Time Latitude Longitude Altitude Speed Heading
2026-04-20 07:13 21.67150 39.16975 49 ft 0 kts 154°
2026-04-20 08:31 21.67158 39.16971 49 ft 4 kts 154°
2026-04-20 08:31 21.67182 39.16958 44 ft 4 kts 154°
2026-04-20 08:31 21.67202 39.16948 43 ft 4 kts 160°
2026-04-20 08:31 21.67225 39.16943 42 ft 4 kts 193°
2026-04-20 08:32 21.67245 39.16954 42 ft 4 kts 230°
2026-04-20 08:32 21.67259 39.16975 44 ft 4 kts 233°
2026-04-20 08:32 21.67276 39.16998 44 ft 4 kts 230°
2026-04-20 08:32 21.67286 39.17010 45 ft 1 kts 231°
2026-04-20 08:37 21.67282 39.17005 45 ft 1 kts 231°
2026-04-20 08:37 21.67271 39.16990 45 ft 5 kts 231°
2026-04-20 08:37 21.67236 39.16941 42 ft 10 kts 238°
2026-04-20 08:37 21.67216 39.16871 47 ft 10 kts 258°
2026-04-20 08:38 21.67224 39.16796 46 ft 11 kts 312°
2026-04-20 08:38 21.67296 39.16777 46 ft 11 kts 349°
2026-04-20 08:38 21.67370 39.16756 45 ft 11 kts 343°
2026-04-20 08:38 21.67442 39.16733 45 ft 11 kts 343°
2026-04-20 08:39 21.67516 39.16709 45 ft 11 kts 343°
2026-04-20 08:39 21.67588 39.16684 45 ft 11 kts 342°
2026-04-20 08:39 21.67651 39.16646 45 ft 7 kts 306°
2026-04-20 08:39 21.67648 39.16592 42 ft 8 kts 246°
2026-04-20 08:40 21.67622 39.16531 43 ft 10 kts 248°
2026-04-20 08:40 21.67597 39.16457 42 ft 11 kts 251°
2026-04-20 08:40 21.67569 39.16373 40 ft 13 kts 250°
2026-04-20 08:40 21.67538 39.16280 39 ft 14 kts 250°
2026-04-20 08:41 21.67499 39.16184 38 ft 14 kts 234°
2026-04-20 08:41 21.67409 39.16167 38 ft 14 kts 155°
2026-04-20 08:41 21.67319 39.16213 39 ft 14 kts 158°
2026-04-20 08:41 21.67223 39.16255 40 ft 15 kts 158°
2026-04-20 08:42 21.67126 39.16294 40 ft 15 kts 159°
2026-04-20 08:42 21.67027 39.16334 40 ft 15 kts 159°
2026-04-20 08:42 21.66929 39.16373 41 ft 15 kts 159°
2026-04-20 08:42 21.66830 39.16413 41 ft 15 kts 159°
2026-04-20 08:43 21.66625 39.16493 41 ft 15 kts 159°
2026-04-20 08:43 21.66526 39.16532 41 ft 15 kts 161°
2026-04-20 08:43 21.66428 39.16568 41 ft 15 kts 161°
2026-04-20 08:44 21.66329 39.16607 41 ft 15 kts 158°
2026-04-20 08:44 21.66246 39.16644 41 ft 8 kts 153°
2026-04-20 08:44 21.66195 39.16636 41 ft 8 kts 222°
2026-04-20 08:44 21.66167 39.16579 40 ft 9 kts 245°
2026-04-20 08:45 21.66143 39.16511 39 ft 8 kts 258°
2026-04-20 08:45 21.66162 39.16473 39 ft 5 kts 326°
2026-04-20 08:45 21.66180 39.16465 39 ft 0 kts 340°
2026-04-20 08:45 21.66301 39.16417 40 ft 57 kts 340°
2026-04-20 08:46 21.67041 39.16126 41 ft 167 kts 340°
2026-04-20 08:46 21.68357 39.15598 411 ft 219 kts 338°
2026-04-20 08:46 21.69839 39.14995 1303 ft 240 kts 338°
2026-04-20 08:46 21.71485 39.14353 2242 ft 261 kts 338°
2026-04-20 08:47 21.73208 39.13676 3158 ft 270 kts 338°
2026-04-20 08:47 21.75007 39.12970 4100 ft 280 kts 338°
2026-04-20 08:47 21.76863 39.12239 5093 ft 285 kts 337°
2026-04-20 08:47 21.78724 39.11504 6116 ft 287 kts 337°
2026-04-20 08:48 21.80611 39.10758 6982 ft 291 kts 336°
2026-04-20 08:48 21.82546 39.09995 7451 ft 299 kts 336°
2026-04-20 08:48 21.84488 39.09234 7947 ft 296 kts 336°
2026-04-20 08:48 21.86422 39.08472 8412 ft 298 kts 336°
2026-04-20 08:49 21.88379 39.07698 9211 ft 306 kts 335°
2026-04-20 08:49 21.90393 39.06878 10078 ft 311 kts 333°
2026-04-20 08:49 21.92409 39.05929 10758 ft 326 kts 331°
2026-04-20 08:49 21.94562 39.04868 11000 ft 355 kts 332°
2026-04-20 08:50 21.96909 39.03723 11235 ft 384 kts 332°
2026-04-20 08:50 21.99457 39.02708 11653 ft 400 kts 347°
2026-04-20 08:50 22.02284 39.02785 12443 ft 415 kts 12°
2026-04-20 08:50 22.04914 39.04085 13471 ft 419 kts 34°
2026-04-20 08:51 22.07041 39.06184 14378 ft 424 kts 49°
2026-04-20 08:51 22.08828 39.08750 15101 ft 432 kts 57°
2026-04-20 08:51 22.10384 39.11555 15800 ft 439 kts 61°
2026-04-20 08:51 22.11838 39.14481 16522 ft 445 kts 62°
2026-04-20 08:52 22.13274 39.17473 17257 ft 451 kts 62°
2026-04-20 08:52 22.14730 39.20492 18009 ft 457 kts 62°
2026-04-20 08:52 22.16229 39.23550 18641 ft 463 kts 61°
2026-04-20 08:52 22.17746 39.26593 19231 ft 469 kts 60°
2026-04-20 08:53 22.19320 39.29714 19847 ft 475 kts 60°
2026-04-20 08:53 22.20920 39.32867 20468 ft 480 kts 60°
2026-04-20 08:53 22.22537 39.36048 21074 ft 486 kts 60°
2026-04-20 08:53 22.24156 39.39231 21653 ft 492 kts 59°
2026-04-20 08:54 22.25813 39.42495 22243 ft 497 kts 59°
2026-04-20 08:54 22.27480 39.45784 22837 ft 502 kts 59°
2026-04-20 08:54 22.29171 39.49121 23383 ft 508 kts 59°
2026-04-20 08:54 22.30870 39.52481 23865 ft 512 kts 59°
2026-04-20 08:55 22.32591 39.55888 24297 ft 517 kts 59°
2026-04-20 08:55 22.34326 39.59323 24762 ft 522 kts 59°
2026-04-20 08:55 22.36051 39.62742 25226 ft 526 kts 58°
2026-04-20 08:55 22.37812 39.66233 25671 ft 531 kts 58°
2026-04-20 08:56 22.39592 39.69766 26088 ft 536 kts 58°
2026-04-20 08:56 22.41385 39.73326 26548 ft 541 kts 58°
2026-04-20 08:56 22.43187 39.76904 26969 ft 544 kts 58°
2026-04-20 08:56 22.45152 39.80402 27430 ft 544 kts 51°
2026-04-20 08:57 22.47424 39.83677 27864 ft 544 kts 45°
2026-04-20 08:57 22.49930 39.86765 28143 ft 546 kts 40°
2026-04-20 08:57 22.52645 39.89552 28526 ft 545 kts 35°
2026-04-20 08:57 22.55510 39.92257 28967 ft 547 kts 34°
2026-04-20 08:58 22.58402 39.94953 29368 ft 550 kts 34°
2026-04-20 08:58 22.61310 39.97670 29719 ft 554 kts 34°
2026-04-20 08:58 22.64233 40.00422 30038 ft 558 kts 34°
2026-04-20 08:58 22.67164 40.03206 30366 ft 560 kts 34°
2026-04-20 08:59 22.70055 40.05971 30814 ft 559 kts 34°
2026-04-20 08:59 22.72952 40.08752 31299 ft 557 kts 34°
2026-04-20 08:59 22.75849 40.11537 31766 ft 555 kts 34°
2026-04-20 08:59 22.78747 40.14321 32209 ft 555 kts 34°
2026-04-20 09:00 22.81633 40.17092 32662 ft 554 kts 34°
2026-04-20 09:00 22.84515 40.19860 33118 ft 553 kts 33°
2026-04-20 09:00 22.87392 40.22622 33578 ft 551 kts 33°
2026-04-20 09:00 22.90237 40.25356 34041 ft 550 kts 33°
2026-04-20 09:01 22.93088 40.28097 34427 ft 548 kts 33°
2026-04-20 09:01 22.95565 40.30481 34799 ft 546 kts 33°
2026-04-20 09:01 22.98408 40.33217 35224 ft 544 kts 33°
2026-04-20 09:01 23.01206 40.35911 35615 ft 542 kts 33°
2026-04-20 09:02 23.04050 40.38652 35980 ft 541 kts 33°
2026-04-20 09:02 23.06871 40.41370 36361 ft 540 kts 33°
2026-04-20 09:02 23.09681 40.44081 36724 ft 538 kts 33°
2026-04-20 09:02 23.12444 40.46747 37016 ft 538 kts 32°
2026-04-20 09:03 23.15256 40.49459 36970 ft 541 kts 33°
2026-04-20 09:03 23.20880 40.54900 36964 ft 537 kts 33°
2026-04-20 09:04 23.26138 40.60651 36972 ft 547 kts 45°
2026-04-20 09:04 23.30135 40.67799 36970 ft 560 kts 62°
2026-04-20 09:05 23.32915 40.75765 36975 ft 563 kts 65°
2026-04-20 09:05 23.35544 40.83747 36974 ft 563 kts 65°
2026-04-20 09:06 23.38257 40.91748 36970 ft 563 kts 64°
2026-04-20 09:06 23.41006 40.99681 36975 ft 564 kts 64°
2026-04-20 09:07 23.43787 41.07694 36981 ft 564 kts 64°
2026-04-20 09:07 23.46552 41.15700 36985 ft 565 kts 64°
2026-04-20 09:08 23.49300 41.23688 36982 ft 565 kts 64°
2026-04-20 09:08 23.52053 41.31706 36979 ft 565 kts 64°
2026-04-20 09:09 23.54802 41.39730 36983 ft 564 kts 64°
2026-04-20 09:09 23.57528 41.47697 36975 ft 563 kts 64°
2026-04-20 09:10 23.60261 41.55699 36977 ft 563 kts 64°
2026-04-20 09:10 23.62534 41.62368 36980 ft 562 kts 64°
2026-04-20 09:11 23.65697 41.71666 36979 ft 562 kts 64°
2026-04-20 09:11 23.67947 41.78341 36976 ft 563 kts 65°
2026-04-20 09:12 23.70505 41.86460 36979 ft 564 kts 66°
2026-04-20 09:12 23.73034 41.94578 36984 ft 564 kts 66°
2026-04-20 09:13 23.75609 42.02622 36978 ft 563 kts 65°
2026-04-20 09:13 23.78360 42.10647 36976 ft 563 kts 64°
2026-04-20 09:14 23.81120 42.18601 36975 ft 563 kts 64°
2026-04-20 09:14 23.83869 42.26631 36970 ft 563 kts 64°
2026-04-20 09:15 23.86581 42.34626 36978 ft 563 kts 64°
2026-04-20 09:15 23.89302 42.42664 36985 ft 564 kts 64°
2026-04-20 09:16 23.92025 42.50718 36962 ft 564 kts 64°
2026-04-20 09:16 23.94732 42.58734 36984 ft 564 kts 64°
2026-04-20 09:17 23.97449 42.66799 36981 ft 565 kts 64°
2026-04-20 09:17 24.00165 42.74877 36980 ft 565 kts 64°
2026-04-20 09:18 24.02796 42.82945 36968 ft 568 kts 71°
2026-04-20 09:18 24.03514 42.87205 36982 ft 574 kts 83°
2026-04-20 09:18 24.03592 42.91579 36998 ft 576 kts 93°
2026-04-20 09:18 24.03070 42.95928 36993 ft 576 kts 105°
2026-04-20 09:19 24.01986 43.00089 36992 ft 573 kts 109°
2026-04-20 09:19 23.99559 43.08416 36987 ft 574 kts 109°
2026-04-20 09:20 23.97175 43.16772 36978 ft 575 kts 108°
2026-04-20 09:20 23.94897 43.25106 36991 ft 575 kts 108°
2026-04-20 09:21 23.92629 43.33495 36986 ft 575 kts 108°
2026-04-20 09:21 23.90345 43.41884 36979 ft 575 kts 108°
2026-04-20 09:22 23.88047 43.50275 36972 ft 575 kts 108°
2026-04-20 09:22 23.85762 43.58595 36963 ft 574 kts 108°
2026-04-20 09:23 23.83457 43.66972 36958 ft 574 kts 108°
2026-04-20 09:23 23.81153 43.75331 36944 ft 574 kts 108°
2026-04-20 09:24 23.78863 43.83620 36926 ft 573 kts 108°
2026-04-20 09:24 23.77081 43.92103 36926 ft 573 kts 97°
2026-04-20 09:25 23.76404 44.00771 36922 ft 572 kts 93°
2026-04-20 09:25 23.75849 44.09468 36911 ft 573 kts 93°
2026-04-20 09:26 23.75236 44.18092 36903 ft 573 kts 94°
2026-04-20 09:26 23.74573 44.26789 36900 ft 573 kts 94°
2026-04-20 09:27 23.73908 44.35398 36896 ft 573 kts 94°
2026-04-20 09:27 23.73240 44.44061 36897 ft 573 kts 94°
2026-04-20 09:28 23.72570 44.52729 36892 ft 572 kts 94°
2026-04-20 09:28 23.71896 44.61394 36897 ft 572 kts 94°
2026-04-20 09:29 23.71216 44.70056 36888 ft 572 kts 94°
2026-04-20 09:29 23.70534 44.78672 36892 ft 572 kts 94°
2026-04-20 09:30 23.69845 44.87338 36883 ft 572 kts 94°
2026-04-20 09:30 23.69152 44.95959 36881 ft 571 kts 94°
2026-04-20 09:31 23.68449 45.04609 36882 ft 571 kts 94°
2026-04-20 09:31 23.67748 45.13203 36879 ft 572 kts 94°
2026-04-20 09:32 23.67039 45.21842 36877 ft 571 kts 94°
2026-04-20 09:32 23.66326 45.30488 36874 ft 571 kts 94°
2026-04-20 09:33 23.65611 45.39120 36870 ft 571 kts 94°
2026-04-20 09:33 23.64891 45.47758 36873 ft 571 kts 94°
2026-04-20 09:34 23.64171 45.56336 36871 ft 571 kts 94°
2026-04-20 09:34 23.63075 45.69297 36869 ft 571 kts 94°
2026-04-20 09:35 23.62343 45.77886 36866 ft 571 kts 94°
2026-04-20 09:35 23.61603 45.86516 36867 ft 571 kts 94°
2026-04-20 09:36 23.60863 45.95109 36867 ft 571 kts 94°
2026-04-20 09:36 23.60111 46.03761 36869 ft 571 kts 94°
2026-04-20 09:37 23.59362 46.12341 36874 ft 571 kts 94°
2026-04-20 09:37 23.58602 46.20993 36866 ft 571 kts 94°
2026-04-20 09:38 23.57843 46.29570 36866 ft 570 kts 94°
2026-04-20 09:38 23.57076 46.38179 36893 ft 570 kts 94°
2026-04-20 09:39 23.56308 46.46746 36887 ft 570 kts 94°
2026-04-20 09:39 23.55533 46.55348 36896 ft 570 kts 94°
2026-04-20 09:40 23.54741 46.63968 36882 ft 571 kts 94°
2026-04-20 09:40 23.53941 46.72582 36886 ft 571 kts 94°
2026-04-20 09:41 23.53137 46.81207 36879 ft 571 kts 94°
2026-04-20 09:41 23.52333 46.89798 36876 ft 570 kts 94°
2026-04-20 09:42 23.51528 46.98357 36876 ft 570 kts 94°
2026-04-20 09:42 23.50713 47.06963 36871 ft 570 kts 94°
2026-04-20 09:43 23.49897 47.15527 36870 ft 570 kts 94°
2026-04-20 09:43 23.49073 47.24125 36863 ft 569 kts 94°
2026-04-20 09:44 23.48247 47.32702 36863 ft 569 kts 94°
2026-04-20 09:44 23.47420 47.41233 36862 ft 568 kts 94°
2026-04-20 09:45 23.46585 47.49805 36861 ft 568 kts 94°
2026-04-20 09:45 23.45749 47.58368 36858 ft 568 kts 94°
2026-04-20 09:46 23.44919 47.66881 36856 ft 568 kts 94°
2026-04-20 09:46 23.44081 47.75440 36845 ft 568 kts 94°
2026-04-20 09:47 23.43236 47.84007 36848 ft 568 kts 94°
2026-04-20 09:47 23.42387 47.92570 36845 ft 568 kts 94°
2026-04-20 09:48 23.41533 48.01132 36841 ft 568 kts 94°
2026-04-20 09:48 23.40673 48.09697 36838 ft 569 kts 94°
2026-04-20 09:49 23.39813 48.18226 36833 ft 569 kts 94°
2026-04-20 09:49 23.38944 48.26800 36822 ft 569 kts 94°
2026-04-20 09:50 23.38113 48.35374 36825 ft 568 kts 91°
2026-04-20 09:50 23.37727 48.43911 36828 ft 567 kts 89°
2026-04-20 09:51 23.37445 48.52496 36828 ft 568 kts 89°
2026-04-20 09:51 23.37127 48.61108 36827 ft 568 kts 90°
2026-04-20 09:52 23.36772 48.69709 36823 ft 568 kts 90°
2026-04-20 09:52 23.36410 48.78258 36826 ft 567 kts 90°
2026-04-20 09:53 23.36046 48.86840 36818 ft 567 kts 90°
2026-04-20 09:53 23.35683 48.95363 36825 ft 566 kts 90°
2026-04-20 09:54 23.35313 49.03925 36814 ft 566 kts 90°
2026-04-20 09:54 23.34936 49.12488 36817 ft 565 kts 90°
2026-04-20 09:55 23.34552 49.21050 36810 ft 565 kts 90°
2026-04-20 09:55 23.34168 49.29541 36817 ft 565 kts 90°
2026-04-20 09:56 23.33776 49.38100 36811 ft 565 kts 90°
2026-04-20 09:56 23.33382 49.46602 36811 ft 565 kts 90°
2026-04-20 09:57 23.32982 49.55149 36803 ft 565 kts 90°
2026-04-20 09:57 23.32577 49.63690 36806 ft 564 kts 90°
2026-04-20 09:58 23.32170 49.72177 36800 ft 564 kts 90°
2026-04-20 09:58 23.31756 49.80714 36802 ft 564 kts 90°
2026-04-20 09:59 23.31409 49.87801 36811 ft 564 kts 90°
2026-04-20 09:59 23.30986 49.96354 36810 ft 564 kts 90°
2026-04-20 10:00 23.30561 50.04841 36799 ft 564 kts 90°
2026-04-20 10:00 23.30130 50.13368 36806 ft 563 kts 90°
2026-04-20 10:01 23.29694 50.21893 36801 ft 563 kts 90°
2026-04-20 10:01 23.29257 50.30373 36998 ft 567 kts 90°
2026-04-20 10:02 23.29033 50.34671 37327 ft 567 kts 90°
2026-04-20 10:02 23.28808 50.38959 37683 ft 566 kts 90°
2026-04-20 10:02 23.28583 50.43228 38017 ft 566 kts 89°
2026-04-20 10:02 23.28356 50.47514 38301 ft 567 kts 89°
2026-04-20 10:03 23.28129 50.51801 38556 ft 568 kts 89°
2026-04-20 10:03 23.27900 50.56087 38739 ft 569 kts 89°
2026-04-20 10:03 23.27436 50.64702 38810 ft 569 kts 89°
2026-04-20 10:04 23.26970 50.73244 38798 ft 566 kts 89°
2026-04-20 10:04 23.26500 50.81790 38810 ft 564 kts 89°
2026-04-20 10:05 23.26028 50.90304 38803 ft 562 kts 89°
2026-04-20 10:05 23.25566 50.98578 38807 ft 561 kts 89°
2026-04-20 10:06 23.25088 51.07044 38807 ft 561 kts 89°
2026-04-20 10:06 23.24605 51.15526 38807 ft 560 kts 89°
2026-04-20 10:07 23.24109 51.23979 38809 ft 560 kts 89°
2026-04-20 10:07 23.23606 51.32399 38807 ft 560 kts 89°
2026-04-20 10:08 23.23021 51.40860 38810 ft 562 kts 93°
2026-04-20 10:08 23.21348 51.49225 38811 ft 567 kts 104°
2026-04-20 10:09 23.18520 51.57203 38810 ft 569 kts 112°
2026-04-20 10:09 23.15345 51.65086 38798 ft 569 kts 112°
2026-04-20 10:10 23.12217 51.72979 38799 ft 568 kts 111°
2026-04-20 10:10 23.09136 51.80893 38800 ft 567 kts 111°
2026-04-20 10:11 23.06083 51.88738 38799 ft 566 kts 111°
2026-04-20 10:11 23.03003 51.96616 38799 ft 565 kts 111°
2026-04-20 10:12 22.99923 52.04476 38796 ft 564 kts 111°
2026-04-20 10:12 22.96842 52.12329 38797 ft 564 kts 111°
2026-04-20 10:13 22.93789 52.20105 38790 ft 563 kts 111°
2026-04-20 10:13 22.90715 52.27922 38793 ft 562 kts 111°
2026-04-20 10:14 22.87638 52.35733 38791 ft 562 kts 111°
2026-04-20 10:14 22.84567 52.43523 38795 ft 561 kts 110°
2026-04-20 10:15 22.82199 52.51490 38802 ft 556 kts 99°
2026-04-20 10:15 22.80985 52.59703 38804 ft 550 kts 92°
2026-04-20 10:16 22.80071 52.67960 38800 ft 551 kts 92°
2026-04-20 10:16 22.79124 52.76157 38799 ft 552 kts 92°
2026-04-20 10:17 22.78121 52.84422 38801 ft 553 kts 92°
2026-04-20 10:17 22.77107 52.92657 38800 ft 553 kts 92°
2026-04-20 10:18 22.76086 53.00932 38800 ft 554 kts 92°
2026-04-20 10:18 22.75066 53.09202 38802 ft 554 kts 92°
2026-04-20 10:19 22.74041 53.17476 38800 ft 554 kts 92°
2026-04-20 10:19 22.73017 53.25710 38802 ft 554 kts 92°
2026-04-20 10:20 22.71981 53.34001 38802 ft 554 kts 92°
2026-04-20 10:20 22.70943 53.42269 38802 ft 554 kts 92°
2026-04-20 10:21 22.69905 53.50510 38803 ft 554 kts 92°
2026-04-20 10:21 22.68857 53.58791 38805 ft 554 kts 92°
2026-04-20 10:22 22.67804 53.67060 38805 ft 553 kts 92°
2026-04-20 10:22 22.66755 53.75259 38806 ft 553 kts 92°
2026-04-20 10:23 22.65698 53.83504 38791 ft 552 kts 92°
2026-04-20 10:23 22.64635 53.91747 38797 ft 551 kts 92°
2026-04-20 10:24 22.63579 53.99916 38807 ft 550 kts 92°
2026-04-20 10:24 22.62513 54.08135 38791 ft 550 kts 92°
2026-04-20 10:25 22.61443 54.16337 38801 ft 548 kts 92°
2026-04-20 10:25 22.60383 54.24446 38792 ft 547 kts 92°
2026-04-20 10:26 22.59312 54.32594 38802 ft 547 kts 92°
2026-04-20 10:26 22.58237 54.40762 38792 ft 547 kts 92°
2026-04-20 10:27 22.57162 54.48916 38803 ft 547 kts 92°
2026-04-20 10:27 22.56089 54.57023 38804 ft 546 kts 92°
2026-04-20 10:28 22.55008 54.65150 38812 ft 546 kts 92°
2026-04-20 10:28 22.53923 54.73285 38813 ft 546 kts 92°
2026-04-20 10:29 22.52831 54.81414 38795 ft 545 kts 92°
2026-04-20 10:29 22.51747 54.89475 38792 ft 544 kts 92°
2026-04-20 10:30 22.50652 54.97582 38813 ft 543 kts 92°
2026-04-20 10:30 22.49554 55.05686 38796 ft 544 kts 92°
2026-04-20 10:31 22.48459 55.13726 38793 ft 543 kts 92°
2026-04-20 10:31 22.47353 55.21824 38798 ft 542 kts 92°
2026-04-20 10:32 22.46255 55.29836 38805 ft 541 kts 92°
2026-04-20 10:32 22.46194 55.37817 38808 ft 521 kts 73°
2026-04-20 10:33 22.47938 55.45252 38810 ft 501 kts 58°
2026-04-20 10:33 22.50615 55.52201 38818 ft 500 kts 58°
2026-04-20 10:34 22.53308 55.59158 38823 ft 502 kts 58°
2026-04-20 10:35 22.57273 55.69690 38822 ft 504 kts 59°
2026-04-20 10:35 22.59888 55.76714 38823 ft 505 kts 59°
2026-04-20 10:36 22.62517 55.83780 38825 ft 506 kts 59°
2026-04-20 10:36 22.65133 55.90818 38827 ft 506 kts 59°
2026-04-20 10:37 22.67765 55.97906 38825 ft 506 kts 59°
2026-04-20 10:37 22.70385 56.04967 38833 ft 505 kts 60°
2026-04-20 10:38 22.72989 56.11999 38837 ft 505 kts 60°
2026-04-20 10:38 22.75596 56.19052 38843 ft 504 kts 60°
2026-04-20 10:39 22.78203 56.26116 38840 ft 503 kts 60°
2026-04-20 10:39 22.80879 56.33105 38830 ft 500 kts 58°
2026-04-20 10:40 22.83736 56.39960 38855 ft 498 kts 57°
2026-04-20 10:40 22.86596 56.46788 38858 ft 498 kts 58°
2026-04-20 10:41 22.89415 56.53620 38850 ft 498 kts 58°
2026-04-20 10:41 22.92227 56.60500 38863 ft 498 kts 58°
2026-04-20 10:42 22.95029 56.67379 38877 ft 498 kts 58°
2026-04-20 10:42 22.97818 56.74229 38885 ft 498 kts 59°
2026-04-20 10:43 23.00619 56.81114 38890 ft 498 kts 59°
2026-04-20 10:43 23.03419 56.88008 38897 ft 497 kts 59°
2026-04-20 10:44 23.06190 56.94839 38902 ft 497 kts 59°
2026-04-20 10:44 23.08976 57.01715 38910 ft 496 kts 59°
2026-04-20 10:45 23.11736 57.08555 38925 ft 492 kts 59°
2026-04-20 10:45 23.14495 57.15379 38924 ft 493 kts 59°
2026-04-20 10:46 23.17254 57.22213 38932 ft 492 kts 59°
2026-04-20 10:46 23.19980 57.28980 38919 ft 490 kts 60°
2026-04-20 10:47 23.22260 57.34652 38932 ft 494 kts 60°
2026-04-20 10:47 23.25019 57.41526 38923 ft 496 kts 60°
2026-04-20 10:48 23.27775 57.48401 38915 ft 496 kts 60°
2026-04-20 10:48 23.30511 57.55245 38903 ft 490 kts 60°
2026-04-20 10:49 23.33207 57.61989 38890 ft 488 kts 60°
2026-04-20 10:49 23.35913 57.68764 38894 ft 487 kts 60°
2026-04-20 10:50 23.38615 57.75539 38879 ft 487 kts 61°
2026-04-20 10:50 23.41309 57.82307 38875 ft 487 kts 61°
2026-04-20 10:51 23.43907 57.88843 38870 ft 488 kts 61°
2026-04-20 10:51 23.46630 57.95704 38852 ft 488 kts 61°
2026-04-20 10:52 23.49330 58.02520 38832 ft 490 kts 62°
2026-04-20 10:52 23.52027 58.09340 38819 ft 490 kts 62°
2026-04-20 10:53 23.54714 58.16144 38810 ft 491 kts 62°
2026-04-20 10:53 23.57414 58.22988 38804 ft 492 kts 62°
2026-04-20 10:54 23.60121 58.29861 38803 ft 492 kts 62°
2026-04-20 10:54 23.62810 58.36700 38803 ft 492 kts 62°
2026-04-20 10:55 23.65510 58.43578 38806 ft 492 kts 62°
2026-04-20 10:55 23.68206 58.50457 38817 ft 493 kts 63°
2026-04-20 10:56 23.70885 58.57300 38816 ft 493 kts 63°
2026-04-20 10:56 23.73580 58.64197 38824 ft 493 kts 63°
2026-04-20 10:57 23.76264 58.71076 38825 ft 492 kts 63°
2026-04-20 10:57 23.78933 58.77928 38831 ft 492 kts 63°
2026-04-20 10:58 23.81618 58.84829 38827 ft 492 kts 63°
2026-04-20 10:58 23.84278 58.91681 38827 ft 492 kts 63°
2026-04-20 10:59 23.86955 58.98585 38829 ft 492 kts 63°
2026-04-20 10:59 23.89626 59.05486 38690 ft 491 kts 62°
2026-04-20 11:00 23.92262 59.12305 38788 ft 489 kts 62°
2026-04-20 11:00 23.95120 59.19036 38828 ft 487 kts 59°
2026-04-20 11:01 23.98138 59.25671 38831 ft 488 kts 59°
2026-04-20 11:01 24.01126 59.32343 38833 ft 489 kts 59°
2026-04-20 11:02 24.04097 59.39013 38834 ft 489 kts 59°
2026-04-20 11:02 24.07090 59.45711 38824 ft 490 kts 59°
2026-04-20 11:03 24.10084 59.52430 38826 ft 490 kts 59°
2026-04-20 11:03 24.13041 59.59093 38822 ft 489 kts 59°
2026-04-20 11:04 24.16010 59.65796 38840 ft 488 kts 59°
2026-04-20 11:04 24.18970 59.72486 38845 ft 487 kts 59°
2026-04-20 11:05 24.21927 59.79180 38828 ft 486 kts 59°
2026-04-20 11:05 24.24844 59.85791 38832 ft 484 kts 59°
2026-04-20 11:06 24.27764 59.92419 38828 ft 482 kts 59°
2026-04-20 11:06 24.30679 59.99046 38830 ft 480 kts 59°
2026-04-20 11:07 24.33575 60.05637 38829 ft 478 kts 59°
2026-04-20 11:07 24.36037 60.12405 38836 ft 484 kts 69°
2026-04-20 11:08 24.37459 60.19664 38835 ft 486 kts 73°
2026-04-20 11:08 24.38749 60.26950 38832 ft 485 kts 73°
2026-04-20 11:09 24.40066 60.34209 38831 ft 484 kts 72°
2026-04-20 11:09 24.41400 60.41397 38827 ft 483 kts 72°
2026-04-20 11:10 24.42748 60.48639 38829 ft 483 kts 72°
2026-04-20 11:10 24.44082 60.55833 38830 ft 482 kts 72°
2026-04-20 11:11 24.45416 60.63056 38831 ft 482 kts 72°
2026-04-20 11:11 24.46747 60.70284 38833 ft 482 kts 73°
2026-04-20 11:12 24.48064 60.77459 38830 ft 482 kts 73°
2026-04-20 11:12 24.49387 60.84689 38828 ft 482 kts 73°
2026-04-20 11:13 24.50705 60.91907 38831 ft 482 kts 73°
2026-04-20 11:13 24.52020 60.99132 38834 ft 482 kts 73°
2026-04-20 11:14 24.53325 61.06323 38831 ft 482 kts 73°
2026-04-20 11:14 24.54635 61.13560 38830 ft 482 kts 73°
2026-04-20 11:15 24.55940 61.20787 38827 ft 482 kts 74°
2026-04-20 11:15 24.57254 61.28017 38825 ft 479 kts 71°
2026-04-20 11:15 24.58317 61.31408 38824 ft 470 kts 59°
2026-04-20 11:16 24.59960 61.34485 38837 ft 463 kts 50°
2026-04-20 11:16 24.62020 61.37180 38827 ft 457 kts 39°
2026-04-20 11:16 24.64403 61.39484 38834 ft 454 kts 36°
2026-04-20 11:17 24.69189 61.43928 38834 ft 455 kts 36°
2026-04-20 11:17 24.74015 61.48465 38831 ft 456 kts 37°
2026-04-20 11:18 24.78798 61.53034 38830 ft 458 kts 37°
2026-04-20 11:18 24.83613 61.57659 38825 ft 458 kts 37°
2026-04-20 11:19 24.88429 61.62289 38824 ft 459 kts 37°
2026-04-20 11:19 24.93213 61.66890 38820 ft 459 kts 37°
2026-04-20 11:20 24.98023 61.71521 38822 ft 459 kts 37°
2026-04-20 11:20 25.02837 61.76161 38821 ft 459 kts 37°
2026-04-20 11:21 25.07555 61.80908 38815 ft 461 kts 43°
2026-04-20 11:21 25.11858 61.86102 38820 ft 461 kts 44°
2026-04-20 11:22 25.16152 61.91375 38812 ft 461 kts 44°
2026-04-20 11:22 25.20466 61.96645 38818 ft 461 kts 44°
2026-04-20 11:23 25.24746 62.01854 38813 ft 460 kts 44°
2026-04-20 11:23 25.29059 62.07100 38809 ft 460 kts 44°
2026-04-20 11:24 25.33366 62.12344 38814 ft 460 kts 44°
2026-04-20 11:24 25.37649 62.17567 38807 ft 460 kts 44°
2026-04-20 11:25 25.41948 62.22816 38807 ft 460 kts 44°
2026-04-20 11:25 25.46212 62.28028 38805 ft 460 kts 44°
2026-04-20 11:26 25.50540 62.33324 38806 ft 460 kts 44°
2026-04-20 11:26 25.54807 62.38552 38798 ft 460 kts 44°
2026-04-20 11:27 25.59098 62.43816 38793 ft 460 kts 44°
2026-04-20 11:27 25.63394 62.49091 38796 ft 460 kts 44°
2026-04-20 11:28 25.67655 62.54329 38787 ft 460 kts 44°
2026-04-20 11:28 25.71945 62.59609 38788 ft 461 kts 44°
2026-04-20 11:29 25.76251 62.64915 38782 ft 461 kts 44°
2026-04-20 11:29 25.80522 62.70185 38779 ft 461 kts 44°
2026-04-20 11:30 25.84817 62.75491 38783 ft 462 kts 44°
2026-04-20 11:30 25.89129 62.80824 38784 ft 462 kts 45°
2026-04-20 11:31 25.93410 62.86125 38785 ft 463 kts 45°
2026-04-20 11:31 25.97716 62.91463 38784 ft 464 kts 45°
2026-04-20 11:32 26.02030 62.96811 38789 ft 464 kts 45°
2026-04-20 11:32 26.05623 63.01256 38792 ft 464 kts 45°
2026-04-20 11:33 26.10646 63.07474 38790 ft 465 kts 45°
2026-04-20 11:33 26.14970 63.12837 38796 ft 465 kts 45°
2026-04-20 11:34 26.18565 63.17300 38796 ft 465 kts 45°
2026-04-20 11:34 26.22887 63.22675 38792 ft 465 kts 45°
2026-04-20 11:35 26.27208 63.28054 38798 ft 465 kts 45°
2026-04-20 11:35 26.31524 63.33433 38799 ft 465 kts 45°
2026-04-20 11:36 26.35838 63.38816 38799 ft 465 kts 45°
2026-04-20 11:36 26.40151 63.44205 38784 ft 465 kts 45°
2026-04-20 11:37 26.44428 63.49556 38804 ft 464 kts 45°
2026-04-20 11:37 26.50881 63.57639 38789 ft 463 kts 45°
2026-04-20 11:38 26.55171 63.63022 38807 ft 463 kts 45°
2026-04-20 11:38 26.59452 63.68400 38792 ft 463 kts 45°
2026-04-20 11:39 26.63706 63.73751 38796 ft 462 kts 45°
2026-04-20 11:39 26.67977 63.79129 38795 ft 461 kts 45°
2026-04-20 11:40 26.72228 63.84490 38802 ft 461 kts 45°
2026-04-20 11:40 26.76477 63.89853 38801 ft 460 kts 45°
2026-04-20 11:41 26.80722 63.95220 38801 ft 459 kts 45°
2026-04-20 11:41 26.84934 64.00550 38804 ft 459 kts 45°
2026-04-20 11:42 26.89175 64.05925 38809 ft 458 kts 45°
2026-04-20 11:42 26.93369 64.11245 38806 ft 458 kts 45°
2026-04-20 11:43 26.97682 64.16514 38806 ft 456 kts 43°
2026-04-20 11:43 27.02111 64.21560 38812 ft 455 kts 42°
2026-04-20 11:44 27.06579 64.26621 38810 ft 456 kts 42°
2026-04-20 11:44 27.11035 64.31706 38811 ft 456 kts 42°
2026-04-20 11:45 27.15476 64.36802 38810 ft 457 kts 42°
2026-04-20 11:45 27.19896 64.41885 38809 ft 458 kts 42°
2026-04-20 11:46 27.24355 64.47017 38810 ft 459 kts 42°
2026-04-20 11:46 27.28824 64.52168 38814 ft 460 kts 42°
2026-04-20 11:47 27.33307 64.57340 38815 ft 461 kts 42°
2026-04-20 11:47 27.37790 64.62519 38810 ft 462 kts 42°
2026-04-20 11:48 27.42246 64.67671 38812 ft 462 kts 42°
2026-04-20 11:48 27.46729 64.72863 38819 ft 462 kts 42°
2026-04-20 11:49 27.51218 64.78068 38816 ft 462 kts 41°
2026-04-20 11:49 27.55707 64.83279 38808 ft 462 kts 41°
2026-04-20 11:50 27.60160 64.88456 38809 ft 461 kts 41°
2026-04-20 11:50 27.64623 64.93651 38796 ft 461 kts 41°
2026-04-20 11:51 27.69061 64.98822 38811 ft 460 kts 41°
2026-04-20 11:51 27.73509 65.04012 38803 ft 459 kts 41°
2026-04-20 11:52 27.77943 65.09191 38804 ft 458 kts 41°
2026-04-20 11:52 27.82374 65.14373 38804 ft 457 kts 41°
2026-04-20 11:53 27.86755 65.19503 38812 ft 456 kts 41°
2026-04-20 11:53 27.91165 65.24674 38812 ft 456 kts 40°
2026-04-20 11:54 27.95577 65.29854 38811 ft 456 kts 40°
2026-04-20 11:54 27.99977 65.35028 38809 ft 456 kts 40°
2026-04-20 11:55 28.04361 65.40188 38810 ft 456 kts 40°
2026-04-20 11:55 28.08759 65.45369 38809 ft 456 kts 40°
2026-04-20 11:56 28.13128 65.50515 38816 ft 456 kts 40°
2026-04-20 11:56 28.17523 65.55699 38816 ft 456 kts 40°
2026-04-20 11:57 28.21933 65.60909 38823 ft 457 kts 40°
2026-04-20 11:57 28.26306 65.66085 38831 ft 457 kts 40°
2026-04-20 11:58 28.30712 65.71304 38838 ft 457 kts 40°
2026-04-20 11:58 28.35128 65.76540 38842 ft 458 kts 40°
2026-04-20 11:59 28.39522 65.81758 38840 ft 459 kts 40°
2026-04-20 11:59 28.43943 65.87016 38857 ft 460 kts 40°
2026-04-20 12:00 28.48349 65.92262 38863 ft 461 kts 40°
2026-04-20 12:00 28.52790 65.97557 38874 ft 462 kts 40°
2026-04-20 12:01 28.57224 66.02850 38886 ft 463 kts 40°
2026-04-20 12:01 28.61669 66.08164 38893 ft 464 kts 40°
2026-04-20 12:02 28.66098 66.13464 38891 ft 465 kts 40°
2026-04-20 12:02 28.70563 66.18817 38923 ft 465 kts 40°
2026-04-20 12:03 28.75009 66.24153 38915 ft 466 kts 40°
2026-04-20 12:03 28.79462 66.29506 38926 ft 465 kts 40°
2026-04-20 12:04 28.83918 66.34869 38933 ft 464 kts 40°
2026-04-20 12:04 28.88337 66.40193 38925 ft 464 kts 40°
2026-04-20 12:05 28.92782 66.45556 38932 ft 463 kts 40°
2026-04-20 12:05 28.97215 66.50913 38934 ft 463 kts 40°
2026-04-20 12:06 29.01621 66.56242 38936 ft 464 kts 40°
2026-04-20 12:06 29.06060 66.61612 38941 ft 464 kts 40°
2026-04-20 12:07 29.10493 66.66966 38931 ft 465 kts 40°
2026-04-20 12:07 29.14929 66.72329 38937 ft 466 kts 40°
2026-04-20 12:08 29.19391 66.77735 38935 ft 467 kts 40°
2026-04-20 12:08 29.23862 66.83161 38928 ft 468 kts 40°
2026-04-20 12:09 29.28335 66.88597 38921 ft 469 kts 41°
2026-04-20 12:09 29.32782 66.94008 38911 ft 469 kts 41°
2026-04-20 12:10 29.37256 66.99459 38909 ft 469 kts 41°
2026-04-20 12:10 29.41734 67.04922 38899 ft 470 kts 41°
2026-04-20 12:11 29.46135 67.10300 38896 ft 470 kts 41°
2026-04-20 12:11 29.50621 67.15790 38871 ft 471 kts 41°
2026-04-20 12:12 29.55083 67.21256 38859 ft 471 kts 41°
2026-04-20 12:12 29.59574 67.26767 38846 ft 471 kts 41°
2026-04-20 12:13 29.64040 67.32254 38827 ft 471 kts 41°
2026-04-20 12:13 29.68522 67.37770 38825 ft 471 kts 41°
2026-04-20 12:14 29.72968 67.43248 38807 ft 471 kts 41°
2026-04-20 12:14 29.77452 67.48765 38803 ft 471 kts 41°
2026-04-20 12:15 29.81941 67.54279 38795 ft 471 kts 41°
2026-04-20 12:15 29.86425 67.59798 38791 ft 471 kts 41°
2026-04-20 12:16 29.90874 67.65285 38793 ft 472 kts 41°
2026-04-20 12:16 29.95364 67.70830 38800 ft 473 kts 41°
2026-04-20 12:17 29.99863 67.76395 38811 ft 474 kts 41°
2026-04-20 12:17 30.04345 67.81946 38821 ft 476 kts 41°
2026-04-20 12:18 30.08887 67.87580 38843 ft 477 kts 41°
2026-04-20 12:18 30.13449 67.93154 38843 ft 477 kts 40°
2026-04-20 12:19 30.17998 67.98666 38870 ft 477 kts 41°
2026-04-20 12:19 30.22575 68.04238 38872 ft 477 kts 41°
2026-04-20 12:20 30.27148 68.09823 38886 ft 476 kts 41°
2026-04-20 12:20 30.31692 68.15417 38887 ft 476 kts 41°
2026-04-20 12:21 30.36193 68.20987 38893 ft 477 kts 41°
2026-04-20 12:21 30.40736 68.26617 38879 ft 477 kts 41°
2026-04-20 12:22 30.45270 68.32240 38875 ft 477 kts 41°
2026-04-20 12:22 30.49042 68.36923 38872 ft 478 kts 41°
2026-04-20 12:23 30.54328 68.43495 38869 ft 479 kts 41°
2026-04-20 12:23 30.58122 68.48216 38859 ft 480 kts 41°
2026-04-20 12:24 30.62676 68.53896 38853 ft 480 kts 41°
2026-04-20 12:24 30.67228 68.59581 38853 ft 480 kts 41°
2026-04-20 12:25 30.71738 68.65221 38854 ft 480 kts 42°
2026-04-20 12:25 30.76301 68.70936 38858 ft 480 kts 42°
2026-04-20 12:26 30.80849 68.76640 38860 ft 480 kts 42°
2026-04-20 12:26 30.85376 68.82327 38849 ft 480 kts 42°
2026-04-20 12:27 30.89916 68.88038 38850 ft 480 kts 42°
2026-04-20 12:27 30.94461 68.93765 38853 ft 480 kts 42°
2026-04-20 12:28 30.98994 68.99485 38857 ft 480 kts 42°
2026-04-20 12:28 31.03484 69.05160 38860 ft 480 kts 42°
2026-04-20 12:29 31.08026 69.10906 38868 ft 481 kts 42°
2026-04-20 12:29 31.12565 69.16659 38862 ft 481 kts 43°
2026-04-20 12:30 31.17105 69.22424 38868 ft 482 kts 43°
2026-04-20 12:30 31.21622 69.28168 38865 ft 483 kts 43°
2026-04-20 12:31 31.26171 69.33961 38871 ft 483 kts 43°
2026-04-20 12:31 31.30725 69.39769 38865 ft 484 kts 43°
2026-04-20 12:32 31.35447 69.45344 38865 ft 479 kts 35°
2026-04-20 12:32 31.40803 69.49808 38863 ft 473 kts 26°
2026-04-20 12:33 31.46467 69.53748 38862 ft 472 kts 26°
2026-04-20 12:33 31.52140 69.57683 38860 ft 473 kts 26°
2026-04-20 12:34 31.57790 69.61655 38850 ft 473 kts 26°
2026-04-20 12:34 31.63408 69.65633 38856 ft 473 kts 26°
2026-04-20 12:35 31.69048 69.69637 38855 ft 474 kts 26°
2026-04-20 12:35 31.74700 69.73653 38851 ft 474 kts 26°
2026-04-20 12:36 31.80343 69.77667 38851 ft 474 kts 26°
2026-04-20 12:36 31.85943 69.81657 38839 ft 473 kts 26°
2026-04-20 12:37 31.91594 69.85688 38841 ft 474 kts 26°
2026-04-20 12:37 31.97203 69.89698 38828 ft 474 kts 26°
2026-04-20 12:38 32.02835 69.93736 38838 ft 473 kts 26°
2026-04-20 12:38 32.08464 69.97780 38831 ft 473 kts 26°
2026-04-20 12:39 32.16905 70.03853 38836 ft 473 kts 26°
2026-04-20 12:40 32.22488 70.07881 38836 ft 473 kts 26°
2026-04-20 12:40 32.28116 70.11943 38831 ft 473 kts 27°
2026-04-20 12:41 32.33741 70.16009 38838 ft 473 kts 27°
2026-04-20 12:41 32.39343 70.20065 38850 ft 474 kts 27°
2026-04-20 12:42 32.44979 70.24152 38845 ft 474 kts 27°
2026-04-20 12:42 32.50606 70.28240 38843 ft 474 kts 27°
2026-04-20 12:43 32.56188 70.32308 38592 ft 471 kts 27°
2026-04-20 12:43 32.58978 70.34346 38279 ft 471 kts 27°
2026-04-20 12:43 32.61752 70.36372 37847 ft 473 kts 27°
2026-04-20 12:43 32.64561 70.38423 37394 ft 474 kts 27°
2026-04-20 12:44 32.67381 70.40486 36914 ft 477 kts 27°
2026-04-20 12:44 32.70214 70.42559 36417 ft 479 kts 27°
2026-04-20 12:44 32.73063 70.44647 35964 ft 481 kts 27°
2026-04-20 12:44 32.75915 70.46739 35478 ft 482 kts 27°
2026-04-20 12:45 32.78776 70.48839 34961 ft 484 kts 27°
2026-04-20 12:45 32.81654 70.50953 34421 ft 486 kts 27°
2026-04-20 12:45 32.84505 70.53049 33881 ft 488 kts 27°
2026-04-20 12:45 32.87431 70.55202 33230 ft 489 kts 27°
2026-04-20 12:46 32.90299 70.57313 32559 ft 491 kts 27°
2026-04-20 12:46 32.93209 70.59458 31863 ft 493 kts 28°
2026-04-20 12:46 32.96134 70.61614 31161 ft 495 kts 28°
2026-04-20 12:46 32.99064 70.63777 30570 ft 494 kts 28°
2026-04-20 12:47 33.01971 70.65926 30148 ft 489 kts 28°
2026-04-20 12:47 33.04847 70.68055 29739 ft 485 kts 28°
2026-04-20 12:47 33.07636 70.70119 29284 ft 481 kts 28°
2026-04-20 12:47 33.10470 70.72218 28819 ft 477 kts 28°
2026-04-20 12:48 33.13281 70.74299 28371 ft 474 kts 28°
2026-04-20 12:48 33.16040 70.76344 27927 ft 471 kts 28°
2026-04-20 12:48 33.18789 70.78387 27487 ft 468 kts 29°
2026-04-20 12:48 33.21379 70.80681 27048 ft 470 kts 37°
2026-04-20 12:49 33.23723 70.83401 26633 ft 469 kts 44°
2026-04-20 12:49 33.25850 70.86354 26247 ft 469 kts 49°
2026-04-20 12:49 33.27707 70.89563 25853 ft 468 kts 54°
2026-04-20 12:49 33.29473 70.92824 25465 ft 465 kts 54°
2026-04-20 12:50 33.31224 70.96073 25099 ft 462 kts 54°
2026-04-20 12:50 33.32963 70.99292 24721 ft 460 kts 54°
2026-04-20 12:50 33.34699 71.02487 24384 ft 457 kts 54°
2026-04-20 12:50 33.36431 71.05666 24050 ft 454 kts 54°
2026-04-20 12:51 33.38153 71.08818 23676 ft 452 kts 54°
2026-04-20 12:51 33.39873 71.11965 23198 ft 452 kts 54°
2026-04-20 12:51 33.41572 71.15070 22716 ft 451 kts 54°
2026-04-20 12:51 33.43311 71.18255 22300 ft 449 kts 54°
2026-04-20 12:52 33.44994 71.21341 21947 ft 446 kts 54°
2026-04-20 12:52 33.46670 71.24418 21868 ft 436 kts 54°
2026-04-20 12:52 33.48301 71.27417 21572 ft 424 kts 54°
2026-04-20 12:52 33.49902 71.30362 21049 ft 419 kts 54°
2026-04-20 12:53 33.51488 71.33281 20560 ft 414 kts 54°
2026-04-20 12:53 33.53021 71.36106 20050 ft 396 kts 54°
2026-04-20 12:53 33.54495 71.38825 19548 ft 383 kts 54°
2026-04-20 12:53 33.55944 71.41493 19086 ft 380 kts 54°
2026-04-20 12:54 33.57368 71.44118 18638 ft 378 kts 54°
2026-04-20 12:54 33.58799 71.46758 18180 ft 376 kts 54°
2026-04-20 12:54 33.60217 71.49380 17670 ft 374 kts 54°
2026-04-20 12:54 33.61630 71.51993 17113 ft 372 kts 54°
2026-04-20 12:55 33.63035 71.54597 16464 ft 367 kts 56°
2026-04-20 12:55 33.64037 71.57370 15785 ft 360 kts 76°
2026-04-20 12:55 33.64170 71.60297 15159 ft 354 kts 96°
2026-04-20 12:55 33.63520 71.63106 14543 ft 346 kts 115°
2026-04-20 12:56 33.62217 71.65479 13939 ft 338 kts 133°
2026-04-20 12:56 33.60420 71.67225 13294 ft 330 kts 152°
2026-04-20 12:56 33.58319 71.68203 12629 ft 321 kts 170°
2026-04-20 12:56 33.56130 71.68368 11980 ft 312 kts 187°
2026-04-20 12:57 33.54035 71.67765 11369 ft 309 kts 204°
2026-04-20 12:57 33.52108 71.66591 10767 ft 313 kts 214°
2026-04-20 12:57 33.50481 71.64882 10150 ft 313 kts 237°
2026-04-20 12:57 33.49665 71.62532 9702 ft 310 kts 262°
2026-04-20 12:58 33.49736 71.59981 9233 ft 306 kts 285°
2026-04-20 12:58 33.50644 71.57696 8998 ft 295 kts 308°
2026-04-20 12:58 33.52095 71.56105 8944 ft 280 kts 327°
2026-04-20 12:58 33.53838 71.55133 8743 ft 275 kts 346°
2026-04-20 12:59 33.55717 71.54860 8540 ft 271 kts 356°
2026-04-20 12:59 33.57595 71.54737 8358 ft 269 kts 356°
2026-04-20 12:59 33.59452 71.54674 8241 ft 265 kts 359°
2026-04-20 12:59 33.61306 71.54645 8030 ft 267 kts 358°
2026-04-20 13:00 33.63162 71.54549 7821 ft 266 kts 355°
2026-04-20 13:00 33.64979 71.54410 7617 ft 263 kts 355°
2026-04-20 13:00 33.66804 71.54254 7411 ft 262 kts 355°
2026-04-20 13:00 33.68625 71.54097 7182 ft 262 kts 355°
2026-04-20 13:01 33.70445 71.53941 6930 ft 263 kts 355°
2026-04-20 13:01 33.72268 71.53787 6710 ft 262 kts 354°
2026-04-20 13:01 33.74078 71.53630 6471 ft 258 kts 354°
2026-04-20 13:01 33.75834 71.53479 6227 ft 249 kts 354°
2026-04-20 13:02 33.77535 71.53335 5957 ft 241 kts 354°
2026-04-20 13:02 33.79172 71.53194 5737 ft 229 kts 355°
2026-04-20 13:02 33.80726 71.53061 5484 ft 220 kts 355°
2026-04-20 13:02 33.82233 71.52931 5186 ft 215 kts 355°
2026-04-20 13:03 33.83689 71.52807 4840 ft 203 kts 355°
2026-04-20 13:03 33.85074 71.52688 4484 ft 196 kts 355°
2026-04-20 13:03 33.86418 71.52572 4089 ft 191 kts 355°
2026-04-20 13:03 33.87734 71.52459 3658 ft 188 kts 355°
2026-04-20 13:04 33.88993 71.52351 3321 ft 175 kts 356°
2026-04-20 13:04 33.90126 71.52254 3190 ft 152 kts 356°
2026-04-20 13:04 33.91177 71.52164 3202 ft 152 kts 356°
2026-04-20 13:04 33.92250 71.52071 3064 ft 157 kts 356°
2026-04-20 13:05 33.93341 71.51984 2713 ft 157 kts 358°
2026-04-20 13:05 33.94437 71.51903 2201 ft 157 kts 354°
2026-04-20 13:05 33.95499 71.51786 1747 ft 148 kts 353°
2026-04-20 13:05 33.96515 71.51683 1518 ft 149 kts 354°
2026-04-20 13:06 33.97564 71.51604 1369 ft 154 kts 355°
2026-04-20 13:06 33.98634 71.51512 1222 ft 151 kts 354°
2026-04-20 13:06 33.99552 71.51444 1202 ft 102 kts 356°
2026-04-20 13:06 34.00043 71.51402 1196 ft 50 kts 355°
2026-04-20 13:07 34.00231 71.51371 1190 ft 10 kts 313°
2026-04-20 13:07 34.00195 71.51288 1191 ft 20 kts 221°
2026-04-20 13:07 34.00023 71.51204 1194 ft 36 kts 176°
2026-04-20 13:07 33.99813 71.51223 1197 ft 28 kts 176°
2026-04-20 13:08 33.99619 71.51249 1200 ft 28 kts 162°
2026-04-20 13:08 33.99519 71.51331 1202 ft 22 kts 132°
2026-04-20 13:08 33.99422 71.51551 1203 ft 22 kts 116°
2026-04-20 13:08 33.99376 71.51662 1204 ft 22 kts 117°
2026-04-20 13:09 33.99313 71.51805 1206 ft 15 kts 118°
2026-04-20 13:09 33.99241 71.51838 1207 ft 11 kts 196°
2026-04-20 13:09 33.99172 71.51851 1208 ft 11 kts 124°
2026-04-20 13:09 33.99112 71.51899 1209 ft 10 kts 162°
2026-04-20 13:10 33.99095 71.51906 1209 ft 1 kts 163°
2026-04-20 13:10 33.99083 71.51910 1209 ft 1 kts 163°
2026-04-20 13:10 33.99079 71.51911 1209 ft 0 kts 163°